Project,Study,Ord_Occ,Event_Num,Cast_ID,Date_Time_UTC,Date_Time_PST,Lat_Dec,Lon_Dec,Sta_ID,Line,Sta,Depth,Pressure,PrQ,Temp1,Temp1Q,Temp2,Temp2Q,TempAve,Salt1,Salt1Q,Salt1_Corr,Salt2,Salt2Q,Salt2_Corr,SaltAve_Corr,Ox1,Ox1Q,Ox1_CruiseCorr,Ox1_StaCorr,Ox2,Ox2Q,Ox2_CruiseCorr,Ox2_StaCorr,OxAve_StaCorr,Ox1uM,Ox1uM_CruiseCorr,Ox1uM_StaCorr,Ox2uM,Ox2uM_CruiseCorr,Ox2uM_StaCorr,OxAveuM_StaCorr,FluorV,FluorQ,EstChl_CruiseCorr,EstChl_StaCorr,ISUSV,ISUSQ,EstNO3_CruiseCorr,EstNO3_StaCorr,SigThetaTS1,SigThetaTS1Q,SigThetaTS2,SigThetaTS2Q,BAT,XMiss,TransQ,pH,pHQ,SPAR,SPARQ,PAR,PARQ,PoT1,PoT2,DynHt,SVA,OxSat1,OxSat2,BTL_Depth,BTL_Temp,SaltB,OxB,OxBuM,Chl-a,Phaeo,NO3,NO2,NH4,PO4,SIL
CalCOFI,2101RL,006,,2101_006d,16-Jan-2021 22:57:18,16-Jan-2021 14:57:18,32.68060,-117.86663,093.3 035.0,093.3,035.0,3.000,3.021,,15.0062,,15.0051,,15.0057,33.3851,,33.3909,33.3783,,33.3803,33.3856,5.7363,,6.0035,5.8638,5.6158,,5.9625,5.7701,5.8170,250.002,261.9623,255.8440,244.750,278.4585,251.7571,253.8006,0.0658,,0.2910,, ,, , ,24.7259,,24.7209,,0.7670,82.5521,,,,1.8514E+03,,5.7468E+00,,15.0058,15.0047,0.0002,320.961,99.786,97.683,3,,33.3821,5.955,259.75,,,,,,,
CalCOFI,2101RL,006,,2101_006d,16-Jan-2021 22:57:28,16-Jan-2021 14:57:28,32.68060,-117.86660,093.3 035.0,093.3,035.0,4.000,4.028,,14.9185,,14.9169,,14.9177,33.3849,,33.3907,33.3780,,33.3800,33.3854,5.7320,,5.9990,5.8595,5.6230,,5.9702,5.7775,5.8185,249.812,261.7634,255.6509,245.062,278.2473,252.0773,253.8641,0.0685,,0.3131,, ,, , ,24.7448,,24.7398,,0.7757,82.3724,,,,1.8492E+03,,5.3108E+00,,14.9180,14.9163,0.0039,319.192,99.537,97.637,,,,,,,,,,,,
CalCOFI,2101RL,006,,2101_006d,16-Jan-2021 22:57:30,16-Jan-2021 14:57:30,32.68060,-117.86659,093.3 035.0,093.3,035.0,5.000,5.035,,14.8630,,14.8633,,14.8632,33.3852,,33.3910,33.3779,,33.3799,33.3855,5.7370,,6.0042,5.8645,5.6495,,5.9983,5.8047,5.8346,250.024,261.9853,255.8663,246.214,278.4830,253.2594,254.5629,0.0706,,0.3303,, ,, , ,24.7570,,24.7513,,0.7773,82.3380,,,,1.8408E+03,,4.9130E+00,,14.8623,14.8626,0.0071,318.061,99.513,97.992,,,,,,,,,,,,
CalCOFI,2101RL,006,,2101_006d,16-Jan-2021 22:57:32,16-Jan-2021 14:57:32,32.68060,-117.86658,093.3 035.0,093.3,035.0,6.000,6.043,,14.8282,,14.8286,,14.8284,33.3855,,33.3913,33.3781,,33.3801,33.3857,5.7444,,6.0120,5.8721,5.6772,,6.0278,5.8331,5.8526,250.345,262.3213,256.1925,247.417,278.8400,254.4938,255.3432,0.0739,,0.3573,, ,, , ,24.7648,,24.7590,,0.7795,82.2933,,,,1.8472E+03,,4.4812E+00,,14.8273,14.8277,0.0103,317.347,99.572,98.404,,,,,,,,,,,,
CalCOFI,2101RL,006,,2101_006d,16-Jan-2021 22:57:34,16-Jan-2021 14:57:34,32.68060,-117.86658,093.3 035.0,093.3,035.0,7.000,7.050,,14.8055,,14.8064,,14.8060,33.3855,,33.3913,33.3780,,33.3800,33.3857,5.7357,,6.0029,5.8632,5.6773,,6.0279,5.8332,5.8482,249.967,261.9257,255.8084,247.421,278.4196,254.4979,255.1532,0.0760,,0.3746,, ,, , ,24.7697,,24.7637,,0.7825,82.2327,,,,1.8492E+03,,4.1556E+00,,14.8044,14.8054,0.0134,316.908,99.377,98.362,,,,,,,,,,,,
CalCOFI,2101RL,006,,2101_006d,16-Jan-2021 22:57:36,16-Jan-2021 14:57:36,32.68060,-117.86657,093.3 035.0,093.3,035.0,8.000,8.057,,14.7815,,14.7821,,14.7818,33.3854,,33.3912,33.3780,,33.3800,33.3856,5.7468,,6.0145,5.8745,5.6835,,6.0344,5.8395,5.8570,250.446,262.4271,256.2951,247.692,278.9523,254.7760,255.5356,0.0779,,0.3901,, ,, , ,24.7748,,24.7689,,0.7834,82.2137,,,,1.8500E+03,,3.8565E+00,,14.7803,14.7810,0.0166,316.452,99.520,98.422,,,,,,,,,,,,
CalCOFI,2101RL,006,,2101_006d,16-Jan-2021 22:57:38,16-Jan-2021 14:57:38,32.68060,-117.86656,093.3 035.0,093.3,035.0,9.000,9.064,,14.7671,,14.7676,,14.7674,33.3856,,33.3914,33.3780,,33.3800,33.3857,5.7377,,6.0050,5.8653,5.6975,,6.0493,5.8539,5.8596,250.052,262.0146,255.8948,248.300,278.5141,255.3999,255.6474,0.0837,,0.4376,, ,, , ,24.7780,,24.7720,,0.7882,82.1146,,,,1.8497E+03,,3.6371E+00,,14.7658,14.7662,0.0198,316.172,99.336,98.635,,,,,,,,,,,,
CalCOFI,2101RL,006,,2101_006d,16-Jan-2021 22:57:40,16-Jan-2021 14:57:40,32.68062,-117.86656,093.3 035.0,093.3,035.0,10.000,10.071,,14.7533,,14.7537,,14.7535,33.3857,,33.3915,33.3780,,33.3800,33.3858,5.7443,,6.0119,5.8720,5.7072,,6.0596,5.8638,5.8679,250.338,262.3140,256.1854,248.723,278.8322,255.8339,256.0097,0.0855,,0.4524,, ,, , ,24.7811,,24.7751,,0.7897,82.0846,,,,1.8472E+03,,3.4129E+00,,14.7518,14.7522,0.0230,315.909,99.422,98.776,10,,33.3927,6.014,262.36,,,,,,,
CalCOFI,2101RL,006,,2101_006d,16-Jan-2021 22:57:42,16-Jan-2021 14:57:42,32.68062,-117.86656,093.3 035.0,093.3,035.0,11.000,11.078,,14.7407,,14.7409,,14.7408,33.3857,,33.3915,33.3782,,33.3802,33.3859,5.7494,,6.0172,5.8771,5.7173,,6.0703,5.8742,5.8757,250.560,262.5464,256.4109,249.160,279.0790,256.2823,256.3466,0.0863,,0.4590,, ,, , ,24.7839,,24.7780,,0.7888,82.1024,,,,1.8483E+03,,3.2520E+00,,14.7391,14.7393,0.0262,315.676,99.485,98.925,,,,,,,,,,,,
CalCOFI,2101RL,006,,2101_006d,16-Jan-2021 22:57:44,16-Jan-2021 14:57:44,32.68062,-117.86656,093.3 035.0,093.3,035.0,12.000,12.085,,14.7281,,14.7292,,14.7287,33.3873,,33.3931,33.3794,,33.3814,33.3873,5.7550,,6.0231,5.8828,5.7165,,6.0695,5.8734,5.8781,250.800,262.7976,256.6548,249.126,279.3459,256.2475,256.4512,0.0863,,0.4590,, ,, , ,24.7878,,24.7814,,0.7831,82.2196,,,,1.8500E+03,,3.0970E+00,,14.7264,14.7275,0.0294,315.328,99.557,98.889,,,,,,,,,,,,
CalCOFI,2101RL,006,,2101_006d,16-Jan-2021 22:57:47,16-Jan-2021 14:57:47,32.68062,-117.86656,093.3 035.0,093.3,035.0,13.000,13.092,,14.7086,,14.7099,,14.7093,33.3872,,33.3930,33.3798,,33.3818,33.3874,5.7593,,6.0276,5.8872,5.7279,,6.0816,5.8850,5.8861,250.989,262.9955,256.8468,249.621,279.5561,256.7554,256.8011,0.0872,,0.4663,, ,, , ,24.7919,,24.7860,,0.7786,82.3118,,,,1.8503E+03,,2.9915E+00,,14.7067,14.7080,0.0325,314.967,99.593,99.048,,,,,,,,,,,,
CalCOFI,2101RL,006,,2101_006d,16-Jan-2021 22:57:48,16-Jan-2021 14:57:48,32.68062,-117.86656,093.3 035.0,093.3,035.0,14.000,14.100,,14.6422,,14.6421,,14.6422,33.3887,,33.3945,33.3814,,33.3834,33.3890,5.7832,,6.0526,5.9114,5.7439,,6.0986,5.9014,5.9064,252.024,264.0789,257.8984,250.314,280.7070,257.4665,257.6825,0.0934,,0.5171,, ,, , ,24.8073,,24.8017,,0.7760,82.3670,,,,1.8481E+03,,2.8804E+00,,14.6401,14.6401,0.0357,313.530,99.874,99.191,,,,,,,,,,,,
CalCOFI,2101RL,006,,2101_006d,16-Jan-2021 22:57:50,16-Jan-2021 14:57:50,32.68062,-117.86654,093.3 035.0,093.3,035.0,15.000,15.107,,14.6164,,14.6167,,14.6166,33.3893,,33.3951,33.3819,,33.3839,33.3895,5.7677,,6.0364,5.8957,5.7314,,6.0853,5.8886,5.8922,251.348,263.3713,257.2115,249.767,279.9553,256.9052,257.0584,0.1009,,0.5786,, ,, , ,24.8133,,24.8075,,0.7793,82.2982,,,,1.8468E+03,,2.7750E+00,,14.6142,14.6145,0.0389,312.988,99.555,98.924,,,,,,,,,,,,
CalCOFI,2101RL,006,,2101_006d,16-Jan-2021 22:57:53,16-Jan-2021 14:57:53,32.68063,-117.86655,093.3 035.0,093.3,035.0,16.000,16.114,,14.5749,,14.5760,,14.5755,33.3899,,33.3957,33.3825,,33.3845,33.3901,5.7641,,6.0326,5.8921,5.7300,,6.0838,5.8872,5.8897,251.189,263.2048,257.0500,249.703,279.7785,256.8395,256.9448,0.1038,,0.6023,, ,, , ,24.8227,,24.8167,,0.7790,82.3037,,,,1.8471E+03,,2.6949E+00,,14.5725,14.5737,0.0420,312.129,99.410,98.819,,,,,,,,,,,,
CalCOFI,2101RL,006,,2101_006d,16-Jan-2021 22:57:55,16-Jan-2021 14:57:55,32.68064,-117.86656,093.3 035.0,093.3,035.0,17.000,17.121,,14.4597,,14.4602,,14.4600,33.3906,,33.3964,33.3837,,33.3857,33.3911,5.7884,,6.0580,5.9167,5.7629,,6.1188,5.9209,5.9188,252.243,264.3082,258.1209,251.133,280.9506,258.3069,258.2139,0.1105,,0.6572,, ,, , ,24.8476,,24.8422,,0.7797,82.2895,,,,1.8483E+03,,2.6218E+00,,14.4572,14.4577,0.0451,309.776,99.599,99.157,,,,,,,,,,,,
CalCOFI,2101RL,006,,2101_006d,16-Jan-2021 22:57:59,16-Jan-2021 14:57:59,32.68065,-117.86656,093.3 035.0,093.3,035.0,18.000,18.128,,14.4566,,14.4685,,14.4626,33.3937,,33.3995,33.3844,,33.3864,33.3930,5.7707,,6.0395,5.8988,5.7477,,6.1026,5.9053,5.9021,251.470,263.4990,257.3355,250.471,280.0910,257.6276,257.4816,0.1139,,0.6851,, ,, , ,24.8507,,24.8410,,0.7798,82.2877,,,,1.8486E+03,,2.5146E+00,,14.4539,14.4659,0.0482,309.511,99.290,98.912,,,,,,,,,,,,
CalCOFI,2101RL,006,,2101_006d,16-Jan-2021 22:58:09,16-Jan-2021 14:58:09,32.68066,-117.86655,093.3 035.0,093.3,035.0,19.000,19.135,,14.3653,,14.3750,,14.3702,33.3931,,33.3989,33.3852,,33.3872,33.3931,5.7552,,6.0233,5.8830,5.7247,,6.0782,5.8818,5.8824,250.792,262.7893,256.6466,249.462,279.3370,256.5923,256.6195,0.1221,,0.7523,, ,, , ,24.8696,,24.8615,,0.7808,82.2675,,,,1.8457E+03,,2.3864E+00,,14.3626,14.3722,0.0514,307.741,98.842,98.331,,,,,,,,,,,,
CalCOFI,2101RL,006,,2101_006d,16-Jan-2021 22:58:15,16-Jan-2021 14:58:15,32.68068,-117.86654,093.3 035.0,093.3,035.0,20.000,20.143,,14.2729,,14.2841,,14.2785,33.3960,,33.4018,33.3883,,33.3903,33.3961,5.7371,,6.0043,5.8646,5.7210,,6.0743,5.8780,5.8713,249.997,261.9571,255.8389,249.295,278.4530,256.4209,256.1299,0.1214,,0.7466,, ,, , ,24.8914,,24.8830,,0.7795,82.2945,,,,1.8484E+03,,2.2729E+00,,14.2700,14.2812,0.0544,305.697,98.349,98.089,20,,33.4297,5.781,252.16,,,,,,,
CalCOFI,2101RL,006,,2101_006d,16-Jan-2021 22:58:21,16-Jan-2021 14:58:21,32.68068,-117.86652,093.3 035.0,093.3,035.0,21.000,21.150,,14.2163,,14.2545,,14.2354,33.3963,,33.4021,33.3875,,33.3895,33.3958,5.7256,,5.9923,5.8530,5.6995,,6.0514,5.8559,5.8545,249.490,261.4263,255.3238,248.359,277.8892,255.4604,255.3921,0.1266,,0.7892,, ,, , ,24.9035,,24.8886,,0.7798,82.2873,,,,1.8468E+03,,2.2021E+00,,14.2133,14.2515,0.0575,304.570,98.039,97.662,,,,,,,,,,,,
CalCOFI,2101RL,006,,2101_006d,16-Jan-2021 22:58:27,16-Jan-2021 14:58:27,32.68067,-117.86650,093.3 035.0,093.3,035.0,22.000,22.157,,14.1864,,14.1654,,14.1759,33.3987,,33.4045,33.3924,,33.3944,33.3995,5.7164,,5.9827,5.8436,5.7015,,6.0536,5.8580,5.8508,249.090,261.0076,254.9174,248.442,277.4444,255.5456,255.2315,0.1274,,0.7957,, ,, , ,24.9116,,24.9112,,0.7839,82.2039,,,,1.8468E+03,,2.1217E+00,,14.1832,14.1623,0.0606,303.822,97.824,97.525,,,,,,,,,,,,
CalCOFI,2101RL,006,,2101_006d,16-Jan-2021 22:58:30,16-Jan-2021 14:58:30,32.68066,-117.86648,093.3 035.0,093.3,035.0,23.000,23.164,,14.1144,,14.1144,,14.1144,33.4029,,33.4087,33.3956,,33.3976,33.4032,5.7066,,5.9724,5.8337,5.6802,,6.0309,5.8361,5.8349,248.657,260.5543,254.4774,247.507,276.9629,254.5862,254.5318,0.1274,,0.7957,, ,, , ,24.9300,,24.9243,,0.7884,82.1115,,,,1.8472E+03,,2.0421E+00,,14.1111,14.1111,0.0636,302.103,97.517,97.061,,,,,,,,,,,,
CalCOFI,2101RL,006,,2101_006d,16-Jan-2021 22:58:33,16-Jan-2021 14:58:33,32.68066,-117.86645,093.3 035.0,093.3,035.0,24.000,24.171,,14.0673,,14.0473,,14.0573,33.4063,,33.4121,33.4020,,33.4040,33.4081,5.7011,,5.9667,5.8281,5.6778,,6.0284,5.8337,5.8309,248.415,260.3010,254.2316,247.402,276.6938,254.4784,254.3550,0.1333,,0.8441,, ,, , ,24.9424,,24.9433,,0.7900,82.0781,,,,1.8432E+03,,2.0199E+00,,14.0639,14.0439,0.0667,300.949,97.332,96.893,,,,,,,,,,,,
CalCOFI,2101RL,006,,2101_006d,16-Jan-2021 22:58:39,16-Jan-2021 14:58:39,32.68066,-117.86644,093.3 035.0,093.3,035.0,25.000,25.178,,14.0296,,14.0190,,14.0243,33.4060,,33.4118,33.3988,,33.4008,33.4063,5.5700,,5.8295,5.6950,5.5765,,5.9208,5.7298,5.7124,242.703,254.3217,248.4280,242.983,270.3419,249.9440,249.1860,0.1395,,0.8949,, ,, , ,24.9501,,24.9466,,0.7958,81.9590,,,,1.8480E+03,,1.9727E+00,,14.0260,14.0155,0.0697,300.245,95.022,95.107,,,,,,,,,,,,
CalCOFI,2101RL,006,,2101_006d,16-Jan-2021 22:58:41,16-Jan-2021 14:58:41,32.68066,-117.86644,093.3 035.0,093.3,035.0,26.000,26.186,,13.8664,,13.8661,,13.8663,33.4235,,33.4293,33.4164,,33.4184,33.4239,5.4904,,5.7462,5.6142,5.4954,,5.8347,5.6467,5.6305,239.220,250.6757,244.8892,239.442,266.4688,246.3105,245.5999,0.1548,,1.0202,, ,, , ,24.9974,,24.9919,,0.8110,81.6483,,,,1.8502E+03,,1.9173E+00,,13.8627,13.8624,0.0727,295.764,93.363,93.444,,,,,,,,,,,,
CalCOFI,2101RL,006,,2101_006d,16-Jan-2021 22:58:43,16-Jan-2021 14:58:43,32.68066,-117.86642,093.3 035.0,093.3,035.0,27.000,27.193,,13.7967,,13.7962,,13.7965,33.4177,,33.4235,33.4106,,33.4126,33.4181,5.4840,,5.7395,5.6077,5.4747,,5.8127,5.6254,5.6166,238.940,250.3826,244.6048,238.536,266.1574,245.3808,244.9928,0.1615,,1.0751,, ,, , ,25.0073,,25.0019,,0.8061,81.7475,,,,1.8469E+03,,1.8384E+00,,13.7929,13.7924,0.0757,294.848,93.119,92.956,,,,,,,,,,,,
CalCOFI,2101RL,006,,2101_006d,16-Jan-2021 22:58:47,16-Jan-2021 14:58:47,32.68066,-117.86642,093.3 035.0,093.3,035.0,28.000,28.200,,13.7689,,13.7644,,13.7667,33.4202,,33.4260,33.4134,,33.4154,33.4207,5.4973,,5.7534,5.6212,5.4661,,5.8035,5.6166,5.6189,239.519,250.9887,245.1930,238.159,266.8013,244.9939,245.0935,0.1524,,1.0006,, ,, , ,25.0149,,25.0106,,0.8018,81.8374,,,,1.8430E+03,,1.8821E+00,,13.7650,13.7605,0.0786,294.147,93.294,92.751,,,,,,,,,,,,
CalCOFI,2101RL,006,,2101_006d,16-Jan-2021 22:58:51,16-Jan-2021 14:58:51,32.68064,-117.86640,093.3 035.0,093.3,035.0,29.000,29.207,,13.7872,,13.7815,,13.7844,33.4310,,33.4368,33.4240,,33.4260,33.4314,5.5788,,5.8387,5.7039,5.5485,,5.8911,5.7011,5.7025,243.070,254.7059,248.8009,241.749,270.7501,248.6777,248.7393,0.1386,,0.8875,, ,, , ,25.0195,,25.0153,,0.7916,82.0452,,,,1.8513E+03,,1.7347E+00,,13.7831,13.7774,0.0816,293.737,94.719,94.189,,,,,,,,,,,,
CalCOFI,2101RL,006,,2101_006d,16-Jan-2021 22:58:53,16-Jan-2021 14:58:53,32.68064,-117.86638,093.3 035.0,093.3,035.0,30.000,30.214,,13.8377,,13.8382,,13.8380,33.4578,,33.4636,33.4503,,33.4523,33.4580,5.5322,,5.7899,5.6566,5.5236,,5.8646,5.6756,5.6661,241.036,252.5767,246.7343,240.662,268.4882,247.5623,247.1483,0.1401,,0.8998,, ,, , ,25.0299,,25.0240,,0.7842,82.1965,,,,1.8418E+03,,1.7641E+00,,13.8335,13.8339,0.0845,292.780,94.040,93.890,,,,,,,,,,,,
CalCOFI,2101RL,006,,2101_006d,16-Jan-2021 22:58:55,16-Jan-2021 14:58:55,32.68063,-117.86638,093.3 035.0,093.3,035.0,31.000,31.222,,13.8121,,13.8120,,13.8121,33.4576,,33.4634,33.4505,,33.4525,33.4580,5.5162,,5.7732,5.6404,5.5047,,5.8445,5.6562,5.6483,240.338,251.8460,246.0252,239.836,267.7120,246.7148,246.3700,0.1366,,0.8711,, ,, , ,25.0351,,25.0295,,0.7817,82.2487,,,,1.8453E+03,,1.7281E+00,,13.8077,13.8077,0.0875,292.318,93.719,93.518,,,,,,,,,,,,
CalCOFI,2101RL,006,,2101_006d,16-Jan-2021 22:58:58,16-Jan-2021 14:58:58,32.68062,-117.86638,093.3 035.0,093.3,035.0,32.000,32.229,,13.7839,,13.7844,,13.7842,33.4581,,33.4639,33.4506,,33.4526,33.4583,5.5181,,5.7751,5.6423,5.4988,,5.8383,5.6502,5.6463,240.419,251.9308,246.1075,239.578,267.8021,246.4500,246.2788,0.1317,,0.8310,, ,, , ,25.0412,,25.0354,,0.7766,82.3521,,,,1.8469E+03,,1.6891E+00,,13.7794,13.7799,0.0904,291.758,93.697,93.366,,,,,,,,,,,,
CalCOFI,2101RL,006,,2101_006d,16-Jan-2021 22:59:01,16-Jan-2021 14:59:01,32.68062,-117.86638,093.3 035.0,093.3,035.0,33.000,33.236,,13.7802,,13.7810,,13.7806,33.4646,,33.4704,33.4567,,33.4587,33.4646,5.4768,,5.7319,5.6004,5.4695,,5.8072,5.6201,5.6103,238.619,250.0466,244.2786,238.301,265.8005,245.1396,244.7091,0.1259,,0.7834,, ,, , ,25.0470,,25.0408,,0.7725,82.4389,,,,1.8457E+03,,1.5887E+00,,13.7755,13.7764,0.0934,291.233,92.993,92.866,,,,,,,,,,,,
CalCOFI,2101RL,006,,2101_006d,16-Jan-2021 22:59:03,16-Jan-2021 14:59:03,32.68062,-117.86636,093.3 035.0,093.3,035.0,34.000,34.243,,13.7716,,13.7719,,13.7718,33.4662,,33.4720,33.4587,,33.4607,33.4664,5.4601,,5.7144,5.5834,5.4395,,5.7753,5.5894,5.5864,237.888,249.2814,243.5359,236.994,264.9876,243.7985,243.6672,0.1266,,0.7892,, ,, , ,25.0501,,25.0442,,0.7705,82.4797,,,,1.8485E+03,,1.5519E+00,,13.7668,13.7671,0.0963,290.969,92.693,92.341,,,,,,,,,,,,
CalCOFI,2101RL,006,,2101_006d,16-Jan-2021 22:59:05,16-Jan-2021 14:59:05,32.68062,-117.86636,093.3 035.0,093.3,035.0,35.000,35.251,,13.7439,,13.7438,,13.7439,33.4642,,33.4700,33.4568,,33.4588,33.4644,5.4450,,5.6986,5.5681,5.4130,,5.7471,5.5622,5.5652,237.229,248.5915,242.8663,235.837,264.2548,242.6113,242.7388,0.1242,,0.7695,, ,, , ,25.0543,,25.0486,,0.7678,82.5349,,,,1.8457E+03,,1.5376E+00,,13.7389,13.7389,0.0992,290.598,92.384,91.837,,,,,,,,,,,,
CalCOFI,2101RL,006,,2101_006d,16-Jan-2021 22:59:07,16-Jan-2021 14:59:07,32.68062,-117.86636,093.3 035.0,093.3,035.0,36.000,36.258,,13.7192,,13.7191,,13.7192,33.4611,,33.4669,33.4535,,33.4555,33.4612,5.4242,,5.6769,5.5470,5.4005,,5.7339,5.5494,5.5482,236.322,247.6421,241.9448,235.294,263.2462,242.0541,241.9995,0.1207,,0.7408,, ,, , ,25.0569,,25.0512,,0.7646,82.6010,,,,1.8470E+03,,1.4792E+00,,13.7141,13.7140,0.1022,290.371,91.982,91.577,,,,,,,,,,,,
CalCOFI,2101RL,006,,2101_006d,16-Jan-2021 22:59:09,16-Jan-2021 14:59:09,32.68062,-117.86636,093.3 035.0,093.3,035.0,37.000,37.265,,13.6910,,13.6903,,13.6907,33.4579,,33.4637,33.4499,,33.4519,33.4578,5.3711,,5.6213,5.4931,5.3684,,5.6998,5.5165,5.5048,234.007,245.2187,239.5927,233.894,260.6719,240.6175,240.1051,0.1168,,0.7089,, ,, , ,25.0603,,25.0542,,0.7609,82.6774,,,,1.8490E+03,,1.4207E+00,,13.6858,13.6851,0.1051,290.082,91.028,90.977,,,,,,,,,,,,
CalCOFI,2101RL,006,,2101_006d,16-Jan-2021 22:59:12,16-Jan-2021 14:59:12,32.68062,-117.86636,093.3 035.0,093.3,035.0,38.000,38.272,,13.6359,,13.6342,,13.6351,33.4478,,33.4536,33.4405,,33.4425,33.4481,5.3214,,5.5693,5.4426,5.3088,,5.6365,5.4554,5.4490,231.841,242.9514,237.3920,231.297,258.2632,237.9526,237.6723,0.1151,,0.6949,, ,, , ,25.0637,,25.0584,,0.7579,82.7399,,,,1.8472E+03,,1.3879E+00,,13.6305,13.6289,0.1080,289.774,90.079,89.859,,,,,,,,,,,,
CalCOFI,2101RL,006,,2101_006d,16-Jan-2021 22:59:14,16-Jan-2021 14:59:14,32.68062,-117.86636,093.3 035.0,093.3,035.0,39.000,39.280,,13.5538,,13.5553,,13.5546,33.4331,,33.4389,33.4260,,33.4280,33.4335,5.2631,,5.5083,5.3835,5.2593,,5.5839,5.4046,5.3941,229.300,240.2914,234.8103,229.139,255.4376,235.7383,235.2743,0.1148,,0.6925,, ,, , ,25.0691,,25.0634,,0.7568,82.7625,,,,1.8472E+03,,1.3307E+00,,13.5483,13.5498,0.1109,289.285,88.934,88.870,,,,,,,,,,,,
CalCOFI,2101RL,006,,2101_006d,16-Jan-2021 22:59:16,16-Jan-2021 14:59:16,32.68062,-117.86636,093.3 035.0,093.3,035.0,40.000,40.287,,13.4782,,13.4772,,13.4777,33.4277,,33.4335,33.4210,,33.4230,33.4283,5.2197,,5.4628,5.3394,5.2193,,5.5414,5.3636,5.3515,227.407,238.3098,232.8870,227.394,253.3326,233.9477,233.4174,0.1192,,0.7285,, ,, , ,25.0804,,25.0753,,0.7585,82.7280,,,,1.8460E+03,,1.3095E+00,,13.4726,13.4716,0.1138,288.239,88.062,88.051,,,,,,,,,,,,
CalCOFI,2101RL,006,,2101_006d,16-Jan-2021 22:59:18,16-Jan-2021 14:59:18,32.68062,-117.86636,093.3 035.0,093.3,035.0,41.000,41.294,,13.4285,,13.4284,,13.4285,33.4290,,33.4348,33.4217,,33.4237,33.4293,5.2189,,5.4620,5.3386,5.2022,,5.5233,5.3461,5.3424,227.372,238.2732,232.8514,226.647,253.2936,233.1811,233.0163,0.1144,,0.6892,, ,, , ,25.0914,,25.0858,,0.7549,82.8019,,,,1.8464E+03,,1.2677E+00,,13.4229,13.4227,0.1167,287.210,87.960,87.675,,,,,,,,,,,,
CalCOFI,2101RL,006,,2101_006d,16-Jan-2021 22:59:19,16-Jan-2021 14:59:19,32.68062,-117.86636,093.3 035.0,093.3,035.0,42.000,42.301,,13.4082,,13.4088,,13.4085,33.4326,,33.4384,33.4252,,33.4272,33.4328,5.2320,,5.4757,5.3519,5.2018,,5.5228,5.3457,5.3488,227.938,238.8657,233.4265,226.626,253.9230,233.1596,233.2931,0.1102,,0.6548,, ,, , ,25.0983,,25.0925,,0.7511,82.8793,,,,1.8496E+03,,1.2236E+00,,13.4023,13.4030,0.1196,286.581,88.145,87.634,,,,,,,,,,,,
CalCOFI,2101RL,006,,2101_006d,16-Jan-2021 22:59:21,16-Jan-2021 14:59:21,32.68063,-117.86636,093.3 035.0,093.3,035.0,43.000,43.309,,13.4128,,13.4135,,13.4132,33.4359,,33.4417,33.4285,,33.4305,33.4361,5.2307,,5.4744,5.3506,5.2180,,5.5400,5.3623,5.3565,227.882,238.8071,233.3696,227.331,253.8608,233.8830,233.6263,0.1061,,0.6212,, ,, , ,25.1000,,25.0941,,0.7505,82.8932,,,,1.8472E+03,,1.1850E+00,,13.4068,13.4075,0.1225,286.449,88.134,87.917,,,,,,,,,,,,
CalCOFI,2101RL,006,,2101_006d,16-Jan-2021 22:59:23,16-Jan-2021 14:59:23,32.68064,-117.86636,093.3 035.0,093.3,035.0,44.000,44.316,,13.4273,,13.4283,,13.4278,33.4454,,33.4512,33.4380,,33.4400,33.4456,5.2218,,5.4650,5.3415,5.2049,,5.5261,5.3488,5.3452,227.493,238.3999,232.9744,226.761,253.4282,233.2981,233.1363,0.0970,,0.5466,, ,, , ,25.1044,,25.0985,,0.7471,82.9630,,,,1.8431E+03,,1.1582E+00,,13.4212,13.4222,0.1254,286.055,88.015,87.729,,,,,,,,,,,,
CalCOFI,2101RL,006,,2101_006d,16-Jan-2021 22:59:25,16-Jan-2021 14:59:25,32.68064,-117.86636,093.3 035.0,093.3,035.0,45.000,45.323,,13.4552,,13.4561,,13.4557,33.4741,,33.4799,33.4673,,33.4693,33.4746,5.2129,,5.4557,5.3325,5.2051,,5.5263,5.3490,5.3408,227.103,237.9916,232.5781,226.766,252.9945,233.3033,232.9407,0.0811,,0.4163,, ,, , ,25.1210,,25.1156,,0.7374,83.1650,,,,1.8473E+03,,1.1157E+00,,13.4489,13.4498,0.1282,284.510,87.932,87.798,,,,,,,,,,,,
CalCOFI,2101RL,006,,2101_006d,16-Jan-2021 22:59:27,16-Jan-2021 14:59:27,32.68064,-117.86636,093.3 035.0,093.3,035.0,46.000,46.331,,13.4443,,13.4444,,13.4444,33.4781,,33.4839,33.4706,,33.4726,33.4783,5.1855,,5.4270,5.3047,5.1858,,5.5058,5.3292,5.3170,225.907,236.7396,231.3630,225.921,251.6645,232.4362,231.8996,0.0779,,0.3901,, ,, , ,25.1264,,25.1205,,0.7369,83.1742,,,,1.8497E+03,,1.0804E+00,,13.4379,13.4380,0.1311,284.028,87.452,87.453,,,,,,,,,,,,
CalCOFI,2101RL,006,,2101_006d,16-Jan-2021 22:59:29,16-Jan-2021 14:59:29,32.68064,-117.86636,093.3 035.0,093.3,035.0,47.000,47.338,,13.4119,,13.4108,,13.4114,33.4785,,33.4843,33.4714,,33.4734,33.4789,5.1265,,5.3653,5.2448,5.1265,,5.4429,5.2684,5.2566,223.336,234.0483,228.7508,223.339,248.8055,229.7867,229.2688,0.0788,,0.3975,, ,, , ,25.1332,,25.1279,,0.7343,83.2300,,,,1.8470E+03,,1.0478E+00,,13.4054,13.4043,0.1340,283.399,86.400,86.395,,,,,,,,,,,,
CalCOFI,2101RL,006,,2101_006d,16-Jan-2021 22:59:31,16-Jan-2021 14:59:31,32.68065,-117.86635,093.3 035.0,093.3,035.0,48.000,48.345,,13.3376,,13.3375,,13.3376,33.4778,,33.4836,33.4709,,33.4729,33.4783,5.0770,,5.3135,5.1945,5.0849,,5.3987,5.2258,5.2102,221.176,231.7872,226.5562,221.522,246.4036,227.9222,227.2392,0.0709,,0.3328,, ,, , ,25.1477,,25.1423,,0.7309,83.3005,,,,1.8462E+03,,1.0136E+00,,13.3310,13.3309,0.1368,282.043,85.435,85.564,,,,,,,,,,,,
CalCOFI,2101RL,006,,2101_006d,16-Jan-2021 22:59:33,16-Jan-2021 14:59:33,32.68066,-117.86634,093.3 035.0,093.3,035.0,49.000,49.353,,13.2591,,13.2590,,13.2591,33.4736,,33.4794,33.4667,,33.4687,33.4741,5.0202,,5.2540,5.1369,5.0391,,5.3500,5.1788,5.1579,218.700,229.1954,224.0405,219.525,243.6502,225.8731,224.9568,0.0709,,0.3328,, ,, , ,25.1602,,25.1549,,0.7315,83.2878,,,,1.8472E+03,,9.8306E-01,,13.2524,13.2522,0.1397,280.877,84.341,84.655,,,,,,,,,,,,
CalCOFI,2101RL,006,,2101_006d,16-Jan-2021 22:59:35,16-Jan-2021 14:59:35,32.68066,-117.86634,093.3 035.0,093.3,035.0,50.000,50.360,,13.1858,,13.1861,,13.1860,33.4612,,33.4670,33.4542,,33.4562,33.4616,4.8840,,5.1115,4.9986,4.9345,,5.2389,5.0716,5.0351,212.763,222.9805,218.0084,214.965,237.0482,221.1939,219.6012,0.0728,,0.3483,, ,, , ,25.1653,,25.1599,,0.7303,83.3121,,,,1.8489E+03,,9.6485E-01,,13.1790,13.1792,0.1425,280.408,81.922,82.767,,,,,,,,,,,,
CalCOFI,2101RL,006,,2101_006d,16-Jan-2021 22:59:36,16-Jan-2021 14:59:36,32.68066,-117.86634,093.3 035.0,093.3,035.0,51.000,51.367,,13.0385,,13.0360,,13.0373,33.4407,,33.4465,33.4349,,33.4369,33.4417,4.7604,,4.9821,4.8731,4.8210,,5.1184,4.9552,4.9142,207.377,217.3424,212.5361,210.018,231.0589,216.1177,214.3269,0.0722,,0.3434,, ,, , ,25.1788,,25.1747,,0.7278,83.3653,,,,1.8459E+03,,9.5132E-01,,13.0316,13.0291,0.1453,279.142,79.598,80.604,51,,33.4115,4.634,202.12,,,,,,,
CalCOFI,2101RL,006,,2101_006d,16-Jan-2021 22:59:38,16-Jan-2021 14:59:38,32.68066,-117.86634,093.3 035.0,093.3,035.0,52.000,52.374,,12.8676,,12.8659,,12.8668,33.4184,,33.4242,33.4123,,33.4143,33.4193,4.6147,,4.8296,4.7252,4.6783,,4.9668,4.8089,4.7671,201.027,210.6953,206.0844,203.797,223.9976,209.7341,207.9093,0.0742,,0.3598,, ,, , ,25.1952,,25.1909,,0.7255,83.4129,,,,1.8462E+03,,9.2438E-01,,12.8606,12.8589,0.1481,277.586,76.879,77.932,,,,,,,,,,,,
CalCOFI,2101RL,006,,2101_006d,16-Jan-2021 22:59:40,16-Jan-2021 14:59:40,32.68066,-117.86634,093.3 035.0,093.3,035.0,53.000,53.382,,12.5449,,12.5414,,12.5432,33.3800,,33.3858,33.3736,,33.3756,33.3807,4.5179,,4.7283,4.6270,4.5620,,4.8433,4.6897,4.6584,196.805,206.2757,201.7947,198.726,219.3026,204.5306,203.1627,0.0727,,0.3475,, ,, , ,25.2284,,25.2241,,0.7199,83.5300,,,,1.8477E+03,,9.0053E-01,,12.5379,12.5344,0.1509,274.425,74.746,75.467,,,,,,,,,,,,